Weather History for New Ulm, MN

Change the Weather History Date:

Wednesday, November 21, 2012

  Actual Average Record
Temperature  
Mean Temperature 56 °F -  
Max Temperature 71 °F 38 °F 71 °F (2012)
Min Temperature 41 °F 20 °F -8 °F (1964)
Degree Days  
Heating Degree Days 9    
Growing Degree Days 6 (Base 50)    
Moisture  
Dew Point 38 °F    
Average Humidity 56    
Maximum Humidity 81    
Minimum Humidity 23    
Precipitation  
Precipitation 0.00 in - - ()
Sea Level Pressure  
Sea Level Pressure 29.86 in    
Wind  
Wind Speed 11 mph (SSW)    
Max Wind Speed 17 mph    
Max Gust Speed 23 mph    
Visibility 10 miles    
Events      
Averages and records for this station are not official NWS values.
T = Trace of Precipitation, MM = Missing Value Source: NWS Daily Summary

Daily Weather History Graph

Daily Weather History Graph

Search for Another Location

Airport:

Trip Planner

Search our weather history database for the weather conditions in past years. The results will help you decide how hot, cold, wet, or windy it might be!

Date:

Astronomy

Nov. 21, 2012 Rise Set
Actual Time 7:22 AM CST 4:45 PM CST
Civil Twilight 6:50 AM CST 5:17 PM CST
Nautical Twilight 6:14 AM CST 5:52 PM CST
Astronomical Twilight 5:40 AM CST 6:27 PM CST
Moon 1:14 PM CST (11/21) 12:28 AM CST (11/21)
Length of Visible Light 10h 26m
Length of Day
9h 23m
First Quarter, 62% of the Moon is Illuminated
Nov 21
First Quarter
Nov 28
Full
Dec 6
Last Quarter
Dec 13
New
Dec 19
First Quarter

Hourly Weather History & Observations

Time (CST) Temp. Windchill Dew Point Humidity Pressure Visibility Wind Dir Wind Speed Gust Speed Precip Events Conditions
12:12 AM 44.6 °F 38.1 °F 32.0 °F 61% 30.00 in 10.0 mi South 13.8 mph - N/A   Clear
12:33 AM 44.6 °F 38.4 °F 32.0 °F 61% 29.99 in 10.0 mi South 12.7 mph - N/A   Clear
12:53 AM 46.4 °F 40.4 °F 33.8 °F 62% 29.98 in 10.0 mi South 13.8 mph - N/A   Clear
1:12 AM 46.4 °F 40.4 °F 33.8 °F 62% 29.98 in 10.0 mi South 13.8 mph - N/A   Clear
1:33 AM 46.4 °F 40.4 °F 33.8 °F 62% 29.97 in 10.0 mi South 13.8 mph - N/A   Clear
1:53 AM 46.4 °F 40.7 °F 33.8 °F 62% 29.97 in 10.0 mi South 12.7 mph - N/A   Clear
2:13 AM 46.4 °F 40.4 °F 33.8 °F 62% 29.96 in 10.0 mi SSW 13.8 mph 19.6 mph N/A   Clear
2:33 AM 48.2 °F - 33.8 °F 58% 29.96 in 10.0 mi SSW 16.1 mph 20.7 mph N/A   Clear
2:53 AM 46.4 °F 40.4 °F 33.8 °F 62% 29.96 in 10.0 mi SSW 13.8 mph - N/A   Clear
3:13 AM 46.4 °F 41.5 °F 35.6 °F 66% 29.95 in 10.0 mi SSW 10.4 mph - N/A   Clear
3:33 AM 46.4 °F 41.1 °F 35.6 °F 66% 29.95 in 10.0 mi SSW 11.5 mph - N/A   Clear
3:53 AM 46.4 °F 40.7 °F 35.6 °F 66% 29.95 in 10.0 mi SSW 12.7 mph - N/A   Clear
4:13 AM 46.4 °F 41.1 °F 35.6 °F 66% 29.94 in 10.0 mi SSW 11.5 mph 17.3 mph N/A   Clear
4:33 AM 46.4 °F 41.5 °F 35.6 °F 66% 29.94 in 10.0 mi SSW 10.4 mph - N/A   Clear
4:52 AM 46.4 °F 41.9 °F 35.6 °F 66% 29.94 in 10.0 mi SSW 9.2 mph - N/A   Clear
5:13 AM 46.4 °F 41.5 °F 35.6 °F 66% 29.94 in 10.0 mi SSW 10.4 mph - N/A   Clear
5:33 AM 46.4 °F 41.9 °F 35.6 °F 66% 29.94 in 10.0 mi SSW 9.2 mph - N/A   Clear
5:53 AM 46.4 °F 42.4 °F 35.6 °F 66% 29.95 in 10.0 mi SSW 8.1 mph - N/A   Clear
6:13 AM 46.4 °F 42.9 °F 35.6 °F 66% 29.95 in 10.0 mi SSW 6.9 mph - N/A   Clear
6:33 AM 46.4 °F 43.5 °F 35.6 °F 66% 29.95 in 10.0 mi SSW 5.8 mph - N/A   Clear
6:52 AM 46.4 °F 41.9 °F 35.6 °F 66% 29.94 in 10.0 mi SSW 9.2 mph - N/A   Clear
7:13 AM 44.6 °F 41.4 °F 35.6 °F 71% 29.95 in 10.0 mi South 5.8 mph - N/A   Clear
7:33 AM 41.0 °F 39.0 °F 35.6 °F 81% 29.95 in 10.0 mi South 3.5 mph - N/A   Clear
7:53 AM 41.0 °F 38.0 °F 35.6 °F 81% 29.96 in 10.0 mi SSW 4.6 mph - N/A   Clear
8:13 AM 42.8 °F 40.1 °F 35.6 °F 76% 29.95 in 7.0 mi South 4.6 mph - N/A   Clear
8:32 AM 42.8 °F 41.1 °F 37.4 °F 81% 29.95 in 10.0 mi South 3.5 mph - N/A   Clear
8:49 AM 42.8 °F - 37.4 °F 81% 29.95 in 10.0 mi Calm Calm - N/A   Clear
9:13 AM 44.6 °F - 37.4 °F 76% 29.95 in 10.0 mi Calm Calm - N/A   Clear
9:32 AM 48.2 °F - 37.4 °F 66% 29.95 in 10.0 mi South 3.5 mph - N/A   Clear
9:53 AM 50.0 °F - 37.4 °F 62% 29.94 in 10.0 mi SSW 6.9 mph - N/A   Clear
10:13 AM 51.8 °F - 39.2 °F 62% 29.94 in 10.0 mi SW 9.2 mph - N/A   Clear
10:33 AM 53.6 °F - 39.2 °F 58% 29.94 in 10.0 mi SSW 8.1 mph - N/A   Clear
10:53 AM 55.4 °F - 39.2 °F 54% 29.93 in 10.0 mi SW 10.4 mph - N/A   Clear
11:13 AM 55.4 °F - 39.2 °F 54% 29.92 in 10.0 mi SSW 6.9 mph - N/A   Clear
11:33 AM 59.0 °F - 39.2 °F 48% 29.90 in 10.0 mi South 9.2 mph - N/A   Clear
11:53 AM 59.0 °F - 39.2 °F 48% 29.89 in 10.0 mi SSW 8.1 mph - N/A   Clear
12:10 PM 60.8 °F - 37.4 °F 42% 29.88 in 10.0 mi SSW 9.2 mph - N/A   Clear
12:32 PM 62.6 °F - 37.4 °F 39% 29.88 in 10.0 mi North - - N/A   Clear
12:53 PM 62.6 °F - 37.4 °F 39% 29.86 in 10.0 mi South 11.5 mph - N/A   Clear
1:13 PM - - - N/A% 29.85 in 10.0 mi South 13.8 mph - N/A   Clear
1:32 PM 66.2 °F - 35.6 °F 32% 29.84 in 10.0 mi South 13.8 mph 17.3 mph N/A   Clear
1:52 PM 66.2 °F - 35.6 °F 32% 29.82 in 10.0 mi South 12.7 mph - N/A   Clear
2:18 PM 69.8 °F - 33.8 °F 27% 29.81 in 10.0 mi SSW 12.7 mph 17.3 mph N/A   Clear
2:32 PM 71.6 °F - 32.0 °F 23% 29.80 in 10.0 mi SSW 16.1 mph 20.7 mph N/A   Clear
2:53 PM 71.6 °F - 33.8 °F 25% 29.80 in 10.0 mi SSW 12.7 mph - N/A   Clear
3:13 PM 69.8 °F - 32.0 °F 25% 29.79 in 10.0 mi South 13.8 mph - N/A   Clear
3:32 PM 69.8 °F - 32.0 °F 25% 29.79 in 10.0 mi South 10.4 mph - N/A   Clear
3:58 PM 68.0 °F - 33.8 °F 28% 29.79 in 10.0 mi SSW 12.7 mph 18.4 mph N/A   Clear
4:13 PM 66.2 °F - 35.6 °F 32% 29.78 in 10.0 mi South 13.8 mph 18.4 mph N/A   Clear
4:33 PM 66.2 °F - 37.4 °F 35% 29.78 in 10.0 mi South 11.5 mph 17.3 mph N/A   Clear
4:53 PM 64.4 °F - 37.4 °F 37% 29.78 in 10.0 mi SSW 13.8 mph - N/A   Clear
5:13 PM 62.6 °F - 39.2 °F 42% 29.78 in 10.0 mi South 9.2 mph - N/A   Clear
5:33 PM 62.6 °F - 39.2 °F 42% 29.78 in 10.0 mi South 9.2 mph - N/A   Clear
5:53 PM 60.8 °F - 39.2 °F 45% 29.77 in 10.0 mi SSE 9.2 mph - N/A   Clear
6:12 PM 60.8 °F - 42.8 °F 52% 29.76 in 10.0 mi South 10.4 mph - N/A   Clear
6:33 PM 59.0 °F - 42.8 °F 55% 29.75 in 10.0 mi South 12.7 mph - N/A   Clear
6:53 PM 60.8 °F - 42.8 °F 52% 29.75 in 10.0 mi South 13.8 mph - N/A   Clear
7:12 PM 60.8 °F - 42.8 °F 52% 29.74 in 10.0 mi South 15.0 mph - N/A   Clear
7:33 PM 60.8 °F - 42.8 °F 52% 29.74 in 10.0 mi South 16.1 mph - N/A   Clear
7:53 PM 60.8 °F - 42.8 °F 52% 29.74 in 10.0 mi South 16.1 mph 23.0 mph N/A   Clear
8:12 PM 59.0 °F - 42.8 °F 55% 29.73 in 10.0 mi South 16.1 mph - N/A   Clear
8:33 PM 57.2 °F - 42.8 °F 59% 29.72 in 10.0 mi South 15.0 mph - N/A   Clear
8:53 PM 57.2 °F - 42.8 °F 59% 29.72 in 10.0 mi South 13.8 mph - N/A   Clear
9:12 PM 57.2 °F - 42.8 °F 59% 29.72 in 10.0 mi South 12.7 mph - N/A   Clear
9:33 PM 55.4 °F - 42.8 °F 63% 29.72 in 10.0 mi South 11.5 mph 16.1 mph N/A   Clear
9:53 PM 57.2 °F - 42.8 °F 59% 29.70 in 10.0 mi South 15.0 mph - N/A   Clear
10:13 PM 57.2 °F - 42.8 °F 59% 29.69 in 10.0 mi South 15.0 mph 20.7 mph N/A   Clear
10:33 PM 57.2 °F - 42.8 °F 59% 29.69 in 10.0 mi South 17.3 mph 21.9 mph N/A   Clear
10:53 PM 57.2 °F - 42.8 °F 59% 29.68 in 10.0 mi South 15.0 mph - N/A   Clear
11:13 PM 55.4 °F - 42.8 °F 63% 29.67 in 10.0 mi South 15.0 mph - N/A   Clear
11:33 PM 53.6 °F - 42.8 °F 67% 29.67 in 10.0 mi South 10.4 mph - N/A   Clear
11:53 PM 53.6 °F - 42.8 °F 67% 29.67 in 10.0 mi South 12.7 mph - N/A   Clear